Location: Czekanka
(50.4925°N, 19.2643°E)
Time: 06:54:45
(UTC+00:00)

Cosmos 2263 Rocket - Pass Details

Date: 23 September 2024
Orbit: 821 x 849 km, 71.0° (Epoch: 12 October)

Event Time Altitude Azimuth Distance (km) Brightness Sun altitude
Rises 01:33:24 0° 141° (SE) 3,372 5.3 -27.2°
Reaches altitude 10° 01:38:26 10° 102° (ESE) 2,455 5.1 -26.5°
Maximum altitude 01:39:14 10° 94° (E) 2,436 5.2 -26.4°
Drops below altitude 10° 01:40:04 10° 85° (E) 2,461 5.3 -26.3°
Sets 01:45:07 0° 46° (NE) 3,412 6.7 -25.7°
